Regional Weather Roundup
Issued by NWS

Home | Current Version | Previous Version | Text Only | Print | Product List | Glossary Off
Versions: 1 2 3 4 5 6 7 8 9 10 11 12 13 14 15 16 17 18 19 20 21 22 23 24 25 26 27 28 29 30 31 32 33 34 35 36 37 38 39 40 41 42 43 44 45 46 47 48 49 50

000
ASUS43 KFSD 250302
RWRSD

WEATHER ROUNDUP FOR SOUTH DAKOTA
NATIONAL WEATHER SERVICE SIOUX FALLS SD
1000 PM CDT THU JUL 24 2014

NOTE: "FAIR" INDICATES FEW OR NO CLOUDS BELOW 12,000 FEET WITH NO
SIGNIFICANT WEATHER AND/OR OBSTRUCTIONS TO VISIBILITY.


SDZ001>005-009-010-012>017-250400-
NORTHWEST AND NORTH CENTRAL SOUTH DAKOTA

CITY           SKY/WX    TMP DP  RH WIND       PRES   REMARKS
BUFFALO          N/A     72  59  63 E12       29.63F
FAITH            N/A     74  66  76 NE30G45   29.71R
MOBRIDGE         N/A     72  65  78 E10G21    29.68R
$$

SDZ012>016-024>037-041>051-057-063-072>074-250400-
SOUTHWEST AND SOUTH CENTRAL SOUTH DAKOTA

CITY           SKY/WX    TMP DP  RH WIND       PRES   REMARKS
RAPID CTY ARPT CLEAR     80  59  48 CALM      29.67F
PIERRE         MOCLDY    85  70  60 SE16      29.60R
CUSTER         CLEAR     75  46  35 CALM      29.91R
ELLSWORTH AFB  PTCLDY    83  58  42 S9        29.66F
PHILIP         PTCLDY    89  54  30 S21       29.62S
PINE RIDGE     CLEAR     80  55  42 S14G29    29.76S
WINNER         FAIR      86  62  44 S24G35    29.64R
$$

SDZ004>011-016>023-039-040-250400-
NORTHEAST SOUTH DAKOTA

CITY           SKY/WX    TMP DP  RH WIND       PRES   REMARKS
ABERDEEN       CLOUDY    71  63  75 SE10      29.76F
WATERTOWN      MOCLDY    67  59  75 SE8       29.83S
SISSETON         N/A     69  64  84 E7        29.83R
$$

SDZ017-020-022-023-036>040-048>070-250400-
SOUTHEAST SOUTH DAKOTA

CITY           SKY/WX    TMP DP  RH WIND       PRES   REMARKS
SIOUX FALLS    MOCLDY    71  62  73 S15       29.81F
HURON          PTCLDY    71  63  75 SE15G24   29.71S
CHAMBERLAIN    MOCLDY    81  69  67 SE15G26   29.68R
MITCHELL       MOCLDY    75  64  68 SE21G31   29.73F
YANKTON        MOCLDY    73  63  68 SE16G24   29.79F
$$

ABBREVIATIONS USED IN REMARKS
   TC - TEMPERATURE IN CELSIUS
  WCI - WIND CHILL INDEX
   HX - HEAT INDEX
  VSB - VISIBILITY



USA.gov is the U.S. government's official web portal to all federal, state and local government web resources and services.